Time,TemperatureF,DewpointF,PressureIn,WindDirection,WindDirectionDegrees,WindSpeedMPH,WindSpeedGustMPH,Humidity,HourlyPrecipIn,Conditions,Clouds,dailyrainin,SolarRadiationWatts/m^2,SoftwareType,DateUTC
2013-11-12 00:00:00,32.9,32.4,30.15,NNW,338,8.1,8.1,98,0.00,RA,,0.00,0.0,WeatherDisplay:10.37,2013-11-12 05:00:00,
2013-11-12 00:01:00,32.7,32.2,30.15,NNW,338,8.1,8.1,98,0.00,RA,,0.00,0.0,WeatherDisplay:10.37,2013-11-12 05:01:00,
2013-11-12 00:02:00,32.7,32.2,30.15,NNW,338,12.7,12.7,98,0.00,RA,,0.00,0.0,WeatherDisplay:10.37,2013-11-12 05:02:00,
2013-11-12 00:07:00,32.7,32.0,30.15,NNW,338,8.1,8.1,97,0.00,RA,,0.00,0.0,WeatherDisplay:10.37,2013-11-12 05:07:00,
2013-11-12 00:12:00,32.7,32.0,30.15,North,0,10.4,10.4,97,0.00,CLR,,0.00,0.0,WeatherDisplay:10.37,2013-11-12 05:12:00,
2013-11-12 00:17:00,32.5,31.8,30.18,NNW,338,9.2,9.2,97,0.00,CLR,,0.00,0.0,WeatherDisplay:10.37,2013-11-12 05:17:00,
2013-11-12 00:22:00,32.5,31.5,30.18,ENE,68,12.1,12.1,96,0.00,CLR,,0.00,0.0,WeatherDisplay:10.37,2013-11-12 05:22:00,
2013-11-12 00:27:00,32.2,31.2,30.18,SSE,158,11.5,11.5,96,0.00,CLR,,0.00,0.0,WeatherDisplay:10.37,2013-11-12 05:27:00,
2013-11-12 00:32:00,31.8,30.8,30.18,NNE,22,5.8,5.8,96,0.00,CLR,,0.00,0.0,WeatherDisplay:10.37,2013-11-12 05:32:00,
2013-11-12 00:37:00,31.6,30.6,30.18,NNW,338,9.2,9.2,96,0.00,CLR,,0.00,0.0,WeatherDisplay:10.37,2013-11-12 05:37:00,
2013-11-12 00:42:00,31.3,30.5,30.18,NNE,22,4.6,4.7,97,0.00,CLR,,0.00,0.0,WeatherDisplay:10.37,2013-11-12 05:42:00,
2013-11-12 00:47:00,31.1,30.3,30.18,NNW,338,10.4,10.4,97,0.00,CLR,,0.00,0.0,WeatherDisplay:10.37,2013-11-12 05:47:00,
2013-11-12 00:52:00,30.4,29.4,30.18,NNW,338,10.4,10.4,96,0.00,CLR,,0.00,0.0,WeatherDisplay:10.37,2013-11-12 05:52:00,
2013-11-12 00:57:00,30.0,29.0,30.18,NNW,338,11.5,11.5,96,0.00,CLR,,0.00,0.0,WeatherDisplay:10.37,2013-11-12 05:57:00,
2013-11-12 01:02:00,29.7,28.9,30.21,NNE,22,8.1,8.1,97,0.00,CLR,,0.00,0.0,WeatherDisplay:10.37,2013-11-12 06:02:00,
2013-11-12 01:07:00,29.5,28.7,30.21,NNW,338,8.1,8.1,97,0.00,CLR,,0.00,0.0,WeatherDisplay:10.37,2013-11-12 06:07:00,
2013-11-12 01:12:00,29.5,28.7,30.21,ENE,68,5.8,5.8,97,0.00,CLR,,0.00,0.0,WeatherDisplay:10.37,2013-11-12 06:12:00,
2013-11-12 01:17:00,29.3,28.6,30.21,NNW,338,4.6,4.6,97,0.00,CLR,,0.00,0.0,WeatherDisplay:10.37,2013-11-12 06:17:00,
2013-11-12 01:22:00,29.3,28.6,30.21,NNW,338,8.5,8.5,97,0.00,CLR,,0.00,0.0,WeatherDisplay:10.37,2013-11-12 06:22:00,
2013-11-12 01:27:00,29.1,28.4,30.21,ENE,68,10.4,10.4,97,0.00,CLR,,0.00,0.0,WeatherDisplay:10.37,2013-11-12 06:27:00,
2013-11-12 01:32:00,29.1,28.4,30.21,SSW,202,10.4,10.4,97,0.00,CLR,,0.00,0.0,WeatherDisplay:10.37,2013-11-12 06:32:00,
2013-11-12 01:37:00,28.9,28.4,30.21,NNE,22,3.5,3.6,98,0.00,CLR,,0.00,0.0,WeatherDisplay:10.37,2013-11-12 06:37:00,
2013-11-12 01:42:00,28.9,28.4,30.21,NNE,22,5.8,5.8,98,0.00,CLR,,0.00,0.0,WeatherDisplay:10.37,2013-11-12 06:42:00,
2013-11-12 01:47:00,28.8,28.3,30.21,NNW,338,8.1,8.1,98,0.00,CLR,,0.00,0.0,WeatherDisplay:10.37,2013-11-12 06:47:00,
2013-11-12 01:52:00,28.8,28.0,30.21,NNW,338,4.6,4.6,97,0.00,CLR,,0.00,0.0,WeatherDisplay:10.37,2013-11-12 06:52:00,
2013-11-12 01:57:00,28.6,27.8,30.21,NNW,338,6.9,6.9,97,0.00,CLR,,0.00,0.0,WeatherDisplay:10.37,2013-11-12 06:57:00,
2013-11-12 02:02:00,28.6,27.6,30.21,NNW,338,6.9,6.9,96,0.00,CLR,,0.00,0.0,WeatherDisplay:10.37,2013-11-12 07:02:00,
2013-11-12 02:07:00,28.6,27.6,30.21,NNW,338,9.2,9.2,96,0.00,CLR,,0.00,0.0,WeatherDisplay:10.37,2013-11-12 07:07:00,
2013-11-12 02:12:00,28.4,27.4,30.21,NNE,22,5.4,5.4,96,0.00,CLR,,0.00,0.0,WeatherDisplay:10.37,2013-11-12 07:12:00,
2013-11-12 02:17:00,28.4,27.4,30.21,ENE,68,6.9,6.9,96,0.00,CLR,,0.00,0.0,WeatherDisplay:10.37,2013-11-12 07:17:00,
2013-11-12 02:22:00,28.4,27.4,30.21,ENE,68,5.8,5.8,96,0.00,CLR,,0.00,0.0,WeatherDisplay:10.37,2013-11-12 07:22:00,
2013-11-12 02:27:00,27.9,26.9,30.21,NNE,22,8.5,8.5,96,0.00,CLR,,0.00,0.0,WeatherDisplay:10.37,2013-11-12 07:27:00,
2013-11-12 02:32:00,27.5,26.3,30.24,WSW,248,10.5,10.5,95,0.00,CLR,,0.00,0.0,WeatherDisplay:10.37,2013-11-12 07:32:00,
2013-11-12 02:37:00,27.1,25.4,30.24,ESE,112,10.4,10.4,93,0.00,CLR,,0.00,0.0,WeatherDisplay:10.37,2013-11-12 07:37:00,
2013-11-12 02:42:00,27.1,25.1,30.24,NNW,338,9.2,9.2,92,0.00,CLR,,0.00,0.0,WeatherDisplay:10.37,2013-11-12 07:42:00,
2013-11-12 02:47:00,27.0,24.9,30.24,NNE,22,10.4,10.4,92,0.00,CLR,,0.00,0.0,WeatherDisplay:10.37,2013-11-12 07:47:00,
2013-11-12 02:52:00,27.0,24.9,30.24,NNE,22,8.5,8.5,92,0.00,CLR,,0.00,0.0,WeatherDisplay:10.37,2013-11-12 07:52:00,
2013-11-12 02:57:00,26.8,24.8,30.24,NNE,22,8.1,8.1,92,0.00,CLR,,0.00,0.0,WeatherDisplay:10.37,2013-11-12 07:57:00,
2013-11-12 03:02:00,26.8,25.0,30.24,NNW,338,5.8,5.8,93,0.00,CLR,,0.00,0.0,WeatherDisplay:10.37,2013-11-12 08:02:00,
2013-11-12 03:07:00,26.8,25.0,30.24,NNW,338,4.6,4.6,93,0.00,CLR,,0.00,0.0,WeatherDisplay:10.37,2013-11-12 08:07:00,
2013-11-12 03:12:00,26.8,25.0,30.24,NNW,338,5.8,5.8,93,0.00,CLR,,0.00,0.0,WeatherDisplay:10.37,2013-11-12 08:12:00,
2013-11-12 03:17:00,26.8,25.0,30.24,NNW,338,8.1,8.1,93,0.00,CLR,,0.00,0.0,WeatherDisplay:10.37,2013-11-12 08:17:00,
2013-11-12 03:22:00,26.8,24.8,30.24,NNW,338,8.1,8.1,92,0.00,CLR,,0.00,0.0,WeatherDisplay:10.37,2013-11-12 08:22:00,
2013-11-12 03:27:00,26.8,24.8,30.24,WNW,292,5.8,5.8,92,0.00,CLR,,0.00,0.0,WeatherDisplay:10.37,2013-11-12 08:27:00,
2013-11-12 03:32:00,27.0,24.9,30.24,NNW,338,6.9,6.9,92,0.00,CLR,,0.00,0.0,WeatherDisplay:10.37,2013-11-12 08:32:00,
2013-11-12 03:37:00,27.0,24.7,30.24,ENE,68,8.1,8.1,91,0.00,CLR,,0.00,0.0,WeatherDisplay:10.37,2013-11-12 08:37:00,
2013-11-12 03:42:00,27.0,24.7,30.24,NNW,338,5.8,5.8,91,0.00,CLR,,0.00,0.0,WeatherDisplay:10.37,2013-11-12 08:42:00,
2013-11-12 03:47:00,27.0,24.7,30.24,NNW,338,6.9,6.9,91,0.00,CLR,,0.00,0.0,WeatherDisplay:10.37,2013-11-12 08:47:00,
2013-11-12 03:52:00,27.0,24.7,30.24,NNW,338,6.9,6.9,91,0.00,CLR,,0.00,0.0,WeatherDisplay:10.37,2013-11-12 08:52:00,
2013-11-12 03:57:00,27.0,24.4,30.24,NNE,22,12.7,12.7,90,0.00,CLR,,0.00,0.0,WeatherDisplay:10.37,2013-11-12 08:57:00,
2013-11-12 04:02:00,27.0,24.2,30.24,NNE,22,11.5,11.5,89,0.00,CLR,,0.00,0.0,WeatherDisplay:10.37,2013-11-12 09:02:00,
2013-11-12 04:07:00,27.0,23.9,30.24,NNW,338,9.2,9.2,88,0.00,CLR,,0.00,0.0,WeatherDisplay:10.37,2013-11-12 09:07:00,
2013-11-12 04:12:00,27.0,23.3,30.24,NNW,338,12.7,12.7,86,0.00,CLR,,0.00,0.0,WeatherDisplay:10.37,2013-11-12 09:12:00,
2013-11-12 04:17:00,27.0,23.1,30.24,ENE,68,8.1,8.1,85,0.00,CLR,,0.00,0.0,WeatherDisplay:10.37,2013-11-12 09:17:00,
2013-11-12 04:22:00,27.0,22.5,30.24,North,0,9.2,9.2,83,0.00,CLR,,0.00,0.0,WeatherDisplay:10.37,2013-11-12 09:22:00,
2013-11-12 04:27:00,26.8,22.3,30.24,NNW,338,8.1,8.1,83,0.00,CLR,,0.00,0.0,WeatherDisplay:10.37,2013-11-12 09:27:00,
2013-11-12 04:32:00,26.8,22.0,30.27,NNW,338,8.1,8.1,82,0.00,CLR,,0.00,0.0,WeatherDisplay:10.37,2013-11-12 09:32:00,
2013-11-12 04:37:00,26.6,21.6,30.27,North,0,5.9,5.9,81,0.00,CLR,,0.00,0.0,WeatherDisplay:10.37,2013-11-12 09:37:00,
2013-11-12 04:42:00,26.6,21.6,30.27,NNE,22,7.6,7.6,81,0.00,CLR,,0.00,0.0,WeatherDisplay:10.37,2013-11-12 09:42:00,
2013-11-12 04:47:00,26.4,21.7,30.27,NNW,338,8.1,8.1,82,0.00,CLR,,0.00,0.0,WeatherDisplay:10.37,2013-11-12 09:47:00,
2013-11-12 04:52:00,26.4,21.4,30.27,NNW,338,8.1,8.1,81,0.00,CLR,,0.00,0.0,WeatherDisplay:10.37,2013-11-12 09:52:00,
2013-11-12 04:57:00,26.2,21.2,30.27,NNW,338,11.5,11.5,81,0.00,CLR,,0.00,0.0,WeatherDisplay:10.37,2013-11-12 09:57:00,
2013-11-12 05:02:00,26.1,20.7,30.27,NNW,338,9.2,9.2,80,0.00,CLR,,0.00,0.0,WeatherDisplay:10.37,2013-11-12 10:02:00,
2013-11-12 05:07:00,26.1,20.7,30.27,NNW,338,9.2,9.2,80,0.00,CLR,,0.00,0.0,WeatherDisplay:10.37,2013-11-12 10:07:00,
2013-11-12 05:12:00,26.1,20.7,30.27,NNW,338,6.9,6.9,80,0.00,CLR,,0.00,0.0,WeatherDisplay:10.37,2013-11-12 10:12:00,
2013-11-12 05:17:00,26.1,20.7,30.27,NNW,338,10.5,10.5,80,0.00,CLR,,0.00,0.0,WeatherDisplay:10.37,2013-11-12 10:17:00,
2013-11-12 05:22:00,25.9,20.6,30.27,NNE,22,8.1,8.1,80,0.00,CLR,,0.00,0.0,WeatherDisplay:10.37,2013-11-12 10:22:00,
2013-11-12 05:27:00,25.7,20.4,30.27,North,0,6.9,6.9,80,0.00,CLR,,0.00,0.0,WeatherDisplay:10.37,2013-11-12 10:27:00,
2013-11-12 05:32:00,25.7,20.4,30.30,NNW,338,12.7,12.7,80,0.00,CLR,,0.00,0.0,WeatherDisplay:10.37,2013-11-12 10:32:00,
2013-11-12 05:37:00,25.5,19.9,30.30,NNW,338,8.1,8.1,79,0.00,CLR,,0.00,0.0,WeatherDisplay:10.37,2013-11-12 10:37:00,
2013-11-12 05:43:00,25.3,19.7,30.30,NNW,338,10.4,10.4,79,0.00,CLR,,0.00,0.0,WeatherDisplay:10.37,2013-11-12 10:43:00,
2013-11-12 05:48:00,25.2,19.6,30.30,NNW,338,6.9,6.9,79,0.00,CLR,,0.00,0.0,WeatherDisplay:10.37,2013-11-12 10:48:00,
2013-11-12 05:53:00,25.0,19.4,30.30,NNW,338,8.1,8.1,79,0.00,CLR,,0.00,0.0,WeatherDisplay:10.37,2013-11-12 10:53:00,
2013-11-12 05:58:00,25.0,19.4,30.30,NNW,338,15.0,15.0,79,0.00,CLR,,0.00,0.0,WeatherDisplay:10.37,2013-11-12 10:58:00,
2013-11-12 06:03:00,24.8,19.2,30.30,NNW,338,6.9,6.9,79,0.00,CLR,,0.00,0.0,WeatherDisplay:10.37,2013-11-12 11:03:00,
2013-11-12 06:08:00,24.6,19.3,30.30,NNW,338,10.0,10.0,80,0.00,CLR,,0.00,0.0,WeatherDisplay:10.37,2013-11-12 11:08:00,
2013-11-12 06:13:00,24.4,19.2,30.30,NNW,338,11.5,11.5,80,0.00,CLR,,0.00,0.0,WeatherDisplay:10.37,2013-11-12 11:13:00,
2013-11-12 06:18:00,24.4,19.2,30.33,NNW,338,5.9,5.9,80,0.00,CLR,,0.00,0.0,WeatherDisplay:10.37,2013-11-12 11:18:00,
2013-11-12 06:23:00,24.3,19.0,30.33,WNW,292,7.6,7.6,80,0.00,CLR,,0.00,0.0,WeatherDisplay:10.37,2013-11-12 11:23:00,
2013-11-12 06:28:00,24.1,18.8,30.33,NNW,338,5.8,5.8,80,0.00,CLR,,0.00,0.0,WeatherDisplay:10.37,2013-11-12 11:28:00,
2013-11-12 06:33:00,24.1,18.8,30.33,WNW,292,5.8,5.8,80,0.00,CLR,,0.00,0.0,WeatherDisplay:10.37,2013-11-12 11:33:00,
2013-11-12 06:38:00,23.9,18.6,30.33,NNW,338,8.1,8.1,80,0.00,CLR,,0.00,0.0,WeatherDisplay:10.37,2013-11-12 11:38:00,
2013-11-12 06:43:00,23.7,18.5,30.33,NNW,338,5.8,5.8,80,0.00,CLR,,0.00,0.0,WeatherDisplay:10.37,2013-11-12 11:43:00,
2013-11-12 06:48:00,23.5,18.3,30.33,NNW,338,6.9,6.9,80,0.00,CLR,,0.00,0.0,WeatherDisplay:10.37,2013-11-12 11:48:00,
2013-11-12 06:53:00,23.5,18.3,30.33,NNW,338,9.2,9.2,80,0.00,CLR,,0.00,0.0,WeatherDisplay:10.37,2013-11-12 11:53:00,
2013-11-12 06:58:00,23.5,18.3,30.33,NNW,338,8.1,8.1,80,0.00,CLR,,0.00,0.0,WeatherDisplay:10.37,2013-11-12 11:58:00,
2013-11-12 07:03:00,23.5,18.6,30.33,North,0,8.1,8.1,81,0.00,CLR,,0.00,0.0,WeatherDisplay:10.37,2013-11-12 12:03:00,
2013-11-12 07:08:00,23.4,18.4,30.33,WNW,292,4.7,4.7,81,0.00,CLR,,0.00,0.0,WeatherDisplay:10.37,2013-11-12 12:08:00,
2013-11-12 07:13:00,23.5,18.9,30.33,NNW,338,8.1,8.1,82,0.00,CLR,,0.00,0.0,WeatherDisplay:10.37,2013-11-12 12:13:00,
2013-11-12 07:18:00,23.5,18.9,30.36,WNW,292,5.8,5.8,82,0.00,CLR,,0.00,0.0,WeatherDisplay:10.37,2013-11-12 12:18:00,
2013-11-12 07:23:00,23.7,19.0,30.36,NNW,338,5.8,5.8,82,0.00,CLR,,0.00,0.0,WeatherDisplay:10.37,2013-11-12 12:23:00,
2013-11-12 07:28:00,23.7,18.7,30.36,NNW,338,4.3,4.3,81,0.00,CLR,,0.00,0.0,WeatherDisplay:10.37,2013-11-12 12:28:00,
2013-11-12 07:33:00,23.9,19.2,30.36,NNW,338,5.8,5.8,82,0.00,CLR,,0.00,0.0,WeatherDisplay:10.37,2013-11-12 12:33:00,
2013-11-12 07:38:00,24.3,19.6,30.36,NNW,338,8.1,8.1,82,0.00,CLR,,0.00,0.0,WeatherDisplay:10.37,2013-11-12 12:38:00,
2013-11-12 07:43:00,25.9,20.9,30.36,NNW,338,8.1,8.1,81,0.00,CLR,,0.00,0.0,WeatherDisplay:10.37,2013-11-12 12:43:00,
2013-11-12 07:48:00,26.4,20.8,30.36,NNW,338,6.0,6.0,79,0.00,CLR,,0.00,0.0,WeatherDisplay:10.37,2013-11-12 12:48:00,
2013-11-12 07:53:00,27.9,21.6,30.36,NNW,338,6.9,6.9,77,0.00,CLR,,0.00,0.0,WeatherDisplay:10.37,2013-11-12 12:53:00,
2013-11-12 07:58:00,27.9,21.0,30.39,WNW,292,7.1,7.1,75,0.00,CLR,,0.00,0.0,WeatherDisplay:10.37,2013-11-12 12:58:00,
2013-11-12 08:03:00,27.5,20.6,30.39,NNW,338,8.1,8.1,75,0.00,CLR,,0.00,0.0,WeatherDisplay:10.37,2013-11-12 13:03:00,
2013-11-12 08:08:00,27.7,20.8,30.39,NNW,338,8.1,8.1,75,0.00,CLR,,0.00,0.0,WeatherDisplay:10.37,2013-11-12 13:08:00,
2013-11-12 08:13:00,29.7,22.1,30.39,NW,315,8.1,8.1,73,0.00,CLR,,0.00,0.0,WeatherDisplay:10.37,2013-11-12 13:13:00,
2013-11-12 08:18:00,29.3,20.7,30.39,NNW,338,8.1,8.1,70,0.00,CLR,,0.00,0.0,WeatherDisplay:10.37,2013-11-12 13:18:00,
2013-11-12 08:23:00,28.9,20.0,30.39,NNW,338,10.4,10.4,69,0.00,CLR,,0.00,0.0,WeatherDisplay:10.37,2013-11-12 13:23:00,
2013-11-12 08:28:00,28.0,19.8,30.39,NNW,338,8.1,8.1,71,0.00,CLR,,0.00,0.0,WeatherDisplay:10.37,2013-11-12 13:28:00,
2013-11-12 08:33:00,27.7,19.8,30.39,WNW,292,8.1,8.1,72,0.00,CLR,,0.00,0.0,WeatherDisplay:10.37,2013-11-12 13:33:00,
2013-11-12 08:38:00,27.3,19.5,30.39,NNW,338,8.1,8.1,72,0.00,CLR,,0.00,0.0,WeatherDisplay:10.37,2013-11-12 13:38:00,
2013-11-12 08:43:00,27.5,20.0,30.39,NNW,338,8.5,8.5,73,0.00,CLR,,0.00,0.0,WeatherDisplay:10.37,2013-11-12 13:43:00,
2013-11-12 08:48:00,27.5,20.0,30.39,NNE,22,8.1,8.1,73,0.00,CLR,,0.00,0.0,WeatherDisplay:10.37,2013-11-12 13:48:00,
2013-11-12 08:53:00,30.7,21.8,30.39,NNW,338,9.2,9.2,69,0.00,CLR,,0.00,100.0,WeatherDisplay:10.37,2013-11-12 13:53:00,
2013-11-12 08:58:00,32.5,21.7,30.42,NNW,338,8.1,8.1,64,0.00,CLR,,0.00,100.0,WeatherDisplay:10.37,2013-11-12 13:58:00,
2013-11-12 09:03:00,32.2,20.2,30.42,NNW,338,9.8,9.8,61,0.00,CLR,,0.00,100.0,WeatherDisplay:10.37,2013-11-12 14:03:00,
2013-11-12 09:08:00,33.1,20.7,30.42,NNE,22,7.8,7.8,60,0.00,CLR,,0.00,200.0,WeatherDisplay:10.37,2013-11-12 14:08:00,
2013-11-12 09:13:00,33.8,21.0,30.42,WNW,292,8.1,8.1,59,0.00,CLR,,0.00,200.0,WeatherDisplay:10.37,2013-11-12 14:13:00,
2013-11-12 09:18:00,30.4,17.7,30.42,NNW,338,10.4,10.4,59,0.00,CLR,,0.00,200.0,WeatherDisplay:10.37,2013-11-12 14:18:00,
2013-11-12 09:23:00,32.9,19.7,30.42,NNW,338,10.4,10.4,58,0.00,CLR,,0.00,300.0,WeatherDisplay:10.37,2013-11-12 14:23:00,
2013-11-12 09:28:00,33.3,20.1,30.42,NNW,338,10.4,10.4,58,0.00,CLR,,0.00,200.0,WeatherDisplay:10.37,2013-11-12 14:28:00,
2013-11-12 09:33:00,32.0,18.9,30.42,NNW,338,12.8,12.8,58,0.00,CLR,,0.00,300.0,WeatherDisplay:10.37,2013-11-12 14:33:00,
2013-11-12 09:38:00,32.7,19.6,30.42,NNW,338,10.5,10.5,58,0.00,CLR,,0.00,400.0,WeatherDisplay:10.37,2013-11-12 14:38:00,
2013-11-12 09:43:00,33.6,20.0,30.42,North,0,9.4,9.4,57,0.00,CLR,,0.00,400.0,WeatherDisplay:10.37,2013-11-12 14:43:00,
2013-11-12 09:49:00,34.2,20.5,30.42,WNW,292,8.1,8.1,57,0.00,CLR,,0.00,400.0,WeatherDisplay:10.37,2013-11-12 14:49:00,
2013-11-12 09:54:00,34.0,19.5,30.42,NNW,338,12.7,12.7,55,0.00,CLR,,0.00,400.0,WeatherDisplay:10.37,2013-11-12 14:54:00,
2013-11-12 09:59:00,32.2,18.2,30.42,NNW,338,9.2,9.2,56,0.00,CLR,,0.00,400.0,WeatherDisplay:10.37,2013-11-12 14:59:00,
2013-11-12 10:04:00,32.0,18.1,30.42,North,0,8.1,8.1,56,0.00,CLR,,0.00,500.0,WeatherDisplay:10.37,2013-11-12 15:04:00,
2013-11-12 10:09:00,32.7,18.7,30.42,NNW,338,9.2,9.2,56,0.00,CLR,,0.00,300.0,WeatherDisplay:10.37,2013-11-12 15:09:00,
2013-11-12 10:14:00,34.2,20.1,30.42,NNW,338,9.2,9.2,56,0.00,CLR,,0.00,500.0,WeatherDisplay:10.37,2013-11-12 15:14:00,
2013-11-12 10:19:00,34.5,20.0,30.42,NNW,338,7.8,7.8,55,0.00,CLR,,0.00,300.0,WeatherDisplay:10.37,2013-11-12 15:19:00,
2013-11-12 10:24:00,34.3,20.3,30.42,NNE,22,10.4,10.4,56,0.00,CLR,,0.00,600.0,WeatherDisplay:10.37,2013-11-12 15:24:00,
2013-11-12 10:29:00,34.9,20.8,30.42,NNE,22,7.1,7.1,56,0.00,CLR,,0.00,600.0,WeatherDisplay:10.37,2013-11-12 15:29:00,
2013-11-12 10:34:00,36.3,21.7,30.42,NNW,338,8.1,8.1,55,0.00,CLR,,0.00,700.0,WeatherDisplay:10.37,2013-11-12 15:34:00,
2013-11-12 10:39:00,36.3,20.8,30.42,WNW,292,9.2,9.2,53,0.00,CLR,,0.00,900.0,WeatherDisplay:10.37,2013-11-12 15:39:00,
2013-11-12 10:44:00,35.1,20.1,30.42,NNW,338,6.9,6.9,54,0.00,CLR,,0.00,1000.0,WeatherDisplay:10.37,2013-11-12 15:44:00,
2013-11-12 10:49:00,35.1,19.6,30.42,NNW,338,12.7,12.7,53,0.00,CLR,,0.00,900.0,WeatherDisplay:10.37,2013-11-12 15:49:00,
2013-11-12 10:54:00,35.4,20.4,30.42,WNW,292,12.8,12.8,54,0.00,CLR,,0.00,1000.0,WeatherDisplay:10.37,2013-11-12 15:54:00,
2013-11-12 10:59:00,34.9,19.9,30.42,NNW,338,8.1,9.2,54,0.00,CLR,,0.00,1000.0,WeatherDisplay:10.37,2013-11-12 15:59:00,
2013-11-12 11:04:00,36.0,20.5,30.42,NNW,338,9.2,9.2,53,0.00,CLR,,0.00,1000.0,WeatherDisplay:10.37,2013-11-12 16:04:00,
2013-11-12 11:09:00,35.8,20.3,30.42,North,0,10.4,10.4,53,0.00,CLR,,0.00,1000.0,WeatherDisplay:10.37,2013-11-12 16:09:00,
2013-11-12 11:14:00,35.6,20.1,30.42,NNW,338,9.7,9.7,53,0.00,CLR,,0.00,1000.0,WeatherDisplay:10.37,2013-11-12 16:14:00,
2013-11-12 11:19:00,37.2,21.6,30.42,WNW,292,8.7,8.7,53,0.00,CLR,,0.00,1000.0,WeatherDisplay:10.37,2013-11-12 16:19:00,
2013-11-12 11:24:00,37.0,21.5,30.42,NNW,338,10.4,10.4,53,0.00,CLR,,0.00,1000.0,WeatherDisplay:10.37,2013-11-12 16:24:00,
2013-11-12 11:29:00,35.8,19.9,30.42,WNW,292,12.7,12.7,52,0.00,CLR,,0.00,1000.0,WeatherDisplay:10.37,2013-11-12 16:29:00,
2013-11-12 11:34:00,35.4,20.0,30.42,NNW,338,13.8,13.8,53,0.00,CLR,,0.00,1000.0,WeatherDisplay:10.37,2013-11-12 16:34:00,
2013-11-12 11:39:00,35.4,20.0,30.42,NNW,338,11.5,11.5,53,0.00,CLR,,0.00,900.0,WeatherDisplay:10.37,2013-11-12 16:39:00,
2013-11-12 11:44:00,35.6,20.1,30.44,NNW,338,10.4,10.4,53,0.00,CLR,,0.00,900.0,WeatherDisplay:10.37,2013-11-12 16:44:00,
2013-11-12 11:49:00,35.8,20.3,30.44,NNW,338,9.2,9.2,53,0.00,CLR,,0.00,900.0,WeatherDisplay:10.37,2013-11-12 16:49:00,
2013-11-12 11:54:00,35.4,20.0,30.44,NNW,338,10.4,10.4,53,0.00,CLR,,0.00,900.0,WeatherDisplay:10.37,2013-11-12 16:54:00,
2013-11-12 11:59:00,35.6,20.1,30.44,NNE,22,11.5,11.5,53,0.00,CLR,,0.00,900.0,WeatherDisplay:10.37,2013-11-12 16:59:00,
2013-11-12 12:04:00,35.8,20.3,30.44,NNW,338,10.2,10.2,53,0.00,CLR,,0.00,800.0,WeatherDisplay:10.37,2013-11-12 17:04:00,
2013-11-12 12:09:00,36.3,21.2,30.44,NE,45,11.5,11.5,54,0.00,CLR,,0.00,800.0,WeatherDisplay:10.37,2013-11-12 17:09:00,
2013-11-12 12:14:00,36.5,21.4,30.42,NNW,338,6.9,6.9,54,0.00,CLR,,0.00,800.0,WeatherDisplay:10.37,2013-11-12 17:14:00,
2013-11-12 12:19:00,35.4,20.4,30.42,NNW,338,9.2,9.2,54,0.00,CLR,,0.00,800.0,WeatherDisplay:10.37,2013-11-12 17:19:00,
2013-11-12 12:24:00,36.7,21.6,30.42,NW,315,10.5,10.5,54,0.00,CLR,,0.00,800.0,WeatherDisplay:10.37,2013-11-12 17:24:00,
2013-11-12 12:29:00,35.4,20.4,30.42,NNW,338,11.5,11.5,54,0.00,CLR,,0.00,800.0,WeatherDisplay:10.37,2013-11-12 17:29:00,
2013-11-12 12:34:00,37.0,21.9,30.42,NNW,338,10.4,10.4,54,0.00,CLR,,0.00,700.0,WeatherDisplay:10.37,2013-11-12 17:34:00,
2013-11-12 12:39:00,37.2,21.6,30.42,NNW,338,10.9,10.9,53,0.00,CLR,,0.00,800.0,WeatherDisplay:10.37,2013-11-12 17:39:00,
2013-11-12 12:44:00,37.0,21.5,30.42,East,90,10.4,10.4,53,0.00,CLR,,0.00,800.0,WeatherDisplay:10.37,2013-11-12 17:44:00,
2013-11-12 12:49:00,36.7,21.1,30.42,NNW,338,11.5,11.5,53,0.00,CLR,,0.00,700.0,WeatherDisplay:10.37,2013-11-12 17:49:00,
2013-11-12 12:54:00,37.9,22.3,30.42,NNW,338,6.4,6.4,53,0.00,CLR,,0.00,800.0,WeatherDisplay:10.37,2013-11-12 17:54:00,
2013-11-12 12:59:00,38.5,22.4,30.42,NNE,22,10.4,10.4,52,0.00,CLR,,0.00,700.0,WeatherDisplay:10.37,2013-11-12 17:59:00,
2013-11-12 13:04:00,37.4,21.4,30.42,NNW,338,9.2,9.2,52,0.00,CLR,,0.00,800.0,WeatherDisplay:10.37,2013-11-12 18:04:00,
2013-11-12 13:09:00,37.4,21.4,30.42,NNW,338,7.8,8.7,52,0.00,CLR,,0.00,800.0,WeatherDisplay:10.37,2013-11-12 18:09:00,
2013-11-12 13:14:00,36.1,20.6,30.42,NNW,338,8.1,8.1,53,0.00,CLR,,0.00,600.0,WeatherDisplay:10.37,2013-11-12 18:14:00,
2013-11-12 13:19:00,36.1,20.6,30.42,NNW,338,9.2,9.2,53,0.00,CLR,,0.00,600.0,WeatherDisplay:10.37,2013-11-12 18:19:00,
2013-11-12 13:24:00,37.0,21.9,30.42,NNW,338,12.8,12.8,54,0.00,CLR,,0.00,700.0,WeatherDisplay:10.37,2013-11-12 18:24:00,
2013-11-12 13:29:00,35.8,20.7,30.42,NNE,22,7.4,7.4,54,0.00,CLR,,0.00,600.0,WeatherDisplay:10.37,2013-11-12 18:29:00,
2013-11-12 13:34:00,34.9,19.9,30.42,NNW,338,10.2,10.2,54,0.00,CLR,,0.00,600.0,WeatherDisplay:10.37,2013-11-12 18:34:00,
2013-11-12 13:39:00,35.6,20.6,30.42,WNW,292,8.1,8.1,54,0.00,CLR,,0.00,500.0,WeatherDisplay:10.37,2013-11-12 18:39:00,
2013-11-12 13:44:00,34.2,19.7,30.42,NNW,338,9.2,9.2,55,0.00,CLR,,0.00,500.0,WeatherDisplay:10.37,2013-11-12 18:44:00,
2013-11-12 13:49:00,34.2,20.1,30.42,NNW,338,11.5,11.5,56,0.00,CLR,,0.00,500.0,WeatherDisplay:10.37,2013-11-12 18:49:00,
2013-11-12 13:54:00,32.7,18.7,30.42,NNW,338,15.0,15.0,56,0.00,CLR,,0.00,400.0,WeatherDisplay:10.37,2013-11-12 18:54:00,
2013-11-12 13:59:00,34.5,20.8,30.42,ENE,68,6.9,6.9,57,0.00,CLR,,0.00,500.0,WeatherDisplay:10.37,2013-11-12 18:59:00,
2013-11-12 14:04:00,34.9,20.8,30.42,SSE,158,8.1,8.1,56,0.00,CLR,,0.00,600.0,WeatherDisplay:10.37,2013-11-12 19:04:00,
2013-11-12 14:09:00,34.9,20.8,30.42,WNW,292,9.2,9.2,56,0.00,CLR,,0.00,400.0,WeatherDisplay:10.37,2013-11-12 19:09:00,
2013-11-12 14:14:00,33.6,20.0,30.42,NNW,338,6.9,6.9,57,0.00,CLR,,0.00,500.0,WeatherDisplay:10.37,2013-11-12 19:14:00,
2013-11-12 14:19:00,34.0,20.3,30.42,NNW,338,10.4,10.4,57,0.00,CLR,,0.00,300.0,WeatherDisplay:10.37,2013-11-12 19:19:00,
2013-11-12 14:24:00,34.5,20.4,30.42,ENE,68,10.4,10.4,56,0.00,CLR,,0.00,400.0,WeatherDisplay:10.37,2013-11-12 19:24:00,
2013-11-12 14:29:00,33.8,20.2,30.44,NNW,338,9.2,9.2,57,0.00,CLR,,0.00,300.0,WeatherDisplay:10.37,2013-11-12 19:29:00,
2013-11-12 14:34:00,33.4,20.2,30.44,WNW,292,6.9,6.9,58,0.00,CLR,,0.00,300.0,WeatherDisplay:10.37,2013-11-12 19:34:00,
2013-11-12 14:39:00,33.4,20.2,30.44,North,0,6.9,6.9,58,0.00,CLR,,0.00,300.0,WeatherDisplay:10.37,2013-11-12 19:39:00,
2013-11-12 14:44:00,33.1,20.3,30.44,NNW,338,8.1,8.1,59,0.00,CLR,,0.00,200.0,WeatherDisplay:10.37,2013-11-12 19:44:00,
2013-11-12 14:49:00,32.9,20.1,30.44,NNW,338,9.8,9.8,59,0.00,CLR,,0.00,400.0,WeatherDisplay:10.37,2013-11-12 19:49:00,
2013-11-12 14:55:00,33.1,20.7,30.44,North,0,9.8,9.8,60,0.00,CLR,,0.00,200.0,WeatherDisplay:10.37,2013-11-12 19:55:00,
2013-11-12 15:00:00,32.5,20.2,30.44,WNW,292,12.8,12.8,60,0.00,CLR,,0.00,300.0,WeatherDisplay:10.37,2013-11-12 20:00:00,
2013-11-12 15:05:00,33.1,21.1,30.44,NNW,338,8.1,8.1,61,0.00,CLR,,0.00,100.0,WeatherDisplay:10.37,2013-11-12 20:05:00,
2013-11-12 15:10:00,32.4,20.0,30.44,NNW,338,8.1,8.1,60,0.00,BKN,,0.00,200.0,WeatherDisplay:10.37,2013-11-12 20:10:00,
2013-11-12 15:15:00,32.7,20.4,30.44,WNW,292,10.4,10.4,60,0.00,CLR,,0.00,200.0,WeatherDisplay:10.37,2013-11-12 20:15:00,
2013-11-12 15:20:00,31.8,19.5,30.44,NNW,338,12.3,12.3,60,0.00,SCT,,0.00,200.0,WeatherDisplay:10.37,2013-11-12 20:20:00,
2013-11-12 15:25:00,31.4,19.1,30.44,NNW,336,9.0,14.0,60,0.00,CLR,,0.00,300.0,WeatherDisplay:10.37,2013-11-12 20:25:00,
2013-11-12 15:30:00,31.1,19.2,30.44,WNW,292,12.7,12.7,61,0.00,BKN,,0.00,100.0,WeatherDisplay:10.37,2013-11-12 20:30:00,
2013-11-12 15:35:00,31.1,20.3,30.44,NNW,334,5.0,10.0,64,0.00,BKN,,0.00,100.0,WeatherDisplay:10.37,2013-11-12 20:35:00,
2013-11-12 15:40:00,31.1,20.0,30.44,NNW,338,10.4,10.4,63,0.00,SCT,,0.00,100.0,WeatherDisplay:10.37,2013-11-12 20:40:00,
2013-11-12 15:45:00,31.1,20.3,30.44,NNW,341,6.0,8.0,64,0.00,BKN,,0.00,100.0,WeatherDisplay:10.37,2013-11-12 20:45:00,
2013-11-12 15:50:00,31.1,20.7,30.44,NNW,340,5.0,13.0,65,0.00,BKN,,0.00,100.0,WeatherDisplay:10.37,2013-11-12 20:50:00,
2013-11-12 15:55:00,30.6,19.2,30.44,NNW,337,8.0,15.0,62,0.00,BKN,,0.00,100.0,WeatherDisplay:10.37,2013-11-12 20:55:00,
2013-11-12 16:00:00,30.6,19.5,30.44,NNW,334,8.0,11.0,63,0.00,BKN,,0.00,100.0,WeatherDisplay:10.37,2013-11-12 21:00:00,
2013-11-12 16:05:00,30.4,18.9,30.44,NNW,338,10.4,10.4,62,0.00,BKN,,0.00,100.0,WeatherDisplay:10.37,2013-11-12 21:05:00,
2013-11-12 16:10:00,30.2,18.7,30.44,NNW,338,10.9,10.9,62,0.00,BKN,,0.00,100.0,WeatherDisplay:10.37,2013-11-12 21:10:00,
2013-11-12 16:15:00,30.2,18.7,30.44,NNW,338,6.4,6.4,62,0.00,BKN,,0.00,100.0,WeatherDisplay:10.37,2013-11-12 21:15:00,
2013-11-12 16:20:00,30.6,18.3,30.44,NNW,338,15.4,15.4,60,0.00,BKN,,0.00,100.0,WeatherDisplay:10.37,2013-11-12 21:20:00,
2013-11-12 16:25:00,31.8,19.1,30.44,NNW,338,9.2,9.2,59,0.00,BKN,,0.00,100.0,WeatherDisplay:10.37,2013-11-12 21:25:00,
2013-11-12 16:30:00,30.7,18.1,30.44,NNW,338,11.5,11.5,59,0.00,BKN,,0.00,100.0,WeatherDisplay:10.37,2013-11-12 21:30:00,
2013-11-12 16:35:00,30.2,18.0,30.44,NNW,331,7.0,10.0,60,0.00,CLR,,0.00,0.0,WeatherDisplay:10.37,2013-11-12 21:35:00,
2013-11-12 16:40:00,29.8,18.0,30.44,NNW,338,9.2,9.2,61,0.00,CLR,,0.00,0.0,WeatherDisplay:10.37,2013-11-12 21:40:00,
2013-11-12 16:45:00,29.7,17.5,30.48,NW,324,7.0,14.0,60,0.00,CLR,,0.00,0.0,WeatherDisplay:10.37,2013-11-12 21:45:00,
2013-11-12 16:50:00,29.5,17.3,30.48,NNW,338,10.4,10.4,60,0.00,CLR,,0.00,0.0,WeatherDisplay:10.37,2013-11-12 21:50:00,
2013-11-12 16:55:00,29.7,17.5,30.48,NNW,329,7.0,10.0,60,0.00,CLR,,0.00,0.0,WeatherDisplay:10.37,2013-11-12 21:55:00,
2013-11-12 17:00:00,29.3,17.1,30.44,NNW,338,10.4,10.4,60,0.00,CLR,,0.00,0.0,WeatherDisplay:10.37,2013-11-12 22:00:00,
2013-11-12 17:05:00,28.9,16.8,30.44,NNW,338,5.4,5.4,60,0.00,CLR,,0.00,0.0,WeatherDisplay:10.37,2013-11-12 22:05:00,
2013-11-12 17:10:00,28.8,17.0,30.44,WNW,292,9.2,9.4,61,0.00,CLR,,0.00,0.0,WeatherDisplay:10.37,2013-11-12 22:10:00,
2013-11-12 17:15:00,28.6,16.8,30.44,NNW,338,9.2,9.2,61,0.00,CLR,,0.00,0.0,WeatherDisplay:10.37,2013-11-12 22:15:00,
2013-11-12 17:20:00,28.4,17.0,30.44,WNW,292,10.4,10.4,62,0.00,CLR,,0.00,0.0,WeatherDisplay:10.37,2013-11-12 22:20:00,
2013-11-12 17:25:00,28.2,16.9,30.44,NW,319,7.0,11.0,62,0.00,CLR,,0.00,0.0,WeatherDisplay:10.37,2013-11-12 22:25:00,
2013-11-12 17:30:00,28.4,17.4,30.44,NNW,338,10.4,10.4,63,0.00,CLR,,0.00,0.0,WeatherDisplay:10.37,2013-11-12 22:30:00,
2013-11-12 17:35:00,28.4,17.4,30.44,NW,325,7.0,9.0,63,0.00,CLR,,0.00,0.0,WeatherDisplay:10.37,2013-11-12 22:35:00,
2013-11-12 17:40:00,28.4,17.8,30.44,NNW,338,5.8,5.8,64,0.00,CLR,,0.00,0.0,WeatherDisplay:10.37,2013-11-12 22:40:00,
2013-11-12 17:45:00,28.2,17.6,30.48,NNW,338,8.1,8.1,64,0.00,CLR,,0.00,0.0,WeatherDisplay:10.37,2013-11-12 22:45:00,
2013-11-12 17:50:00,28.4,18.1,30.48,NNW,328,5.0,8.0,65,0.00,CLR,,0.00,0.0,WeatherDisplay:10.37,2013-11-12 22:50:00,
2013-11-12 17:55:00,28.5,18.2,30.48,NW,316,5.0,7.0,65,0.00,CLR,,0.00,0.0,WeatherDisplay:10.37,2013-11-12 22:55:00,
2013-11-12 18:00:00,28.6,17.9,30.44,NW,317,6.0,10.0,64,0.00,CLR,,0.00,0.0,WeatherDisplay:10.37,2013-11-12 23:00:00,
2013-11-12 18:05:00,28.8,18.1,30.44,WNW,292,5.8,5.8,64,0.00,CLR,,0.00,0.0,WeatherDisplay:10.37,2013-11-12 23:05:00,
2013-11-12 18:10:00,28.8,18.1,30.44,WNW,292,9.2,9.2,64,0.00,CLR,,0.00,0.0,WeatherDisplay:10.37,2013-11-12 23:10:00,
2013-11-12 18:15:00,28.9,18.3,30.48,NW,320,6.0,9.0,64,0.00,CLR,,0.00,0.0,WeatherDisplay:10.37,2013-11-12 23:15:00,
2013-11-12 18:20:00,28.9,17.9,30.48,NW,315,9.2,9.2,63,0.00,CLR,,0.00,0.0,WeatherDisplay:10.37,2013-11-12 23:20:00,
2013-11-12 18:25:00,28.6,17.2,30.48,WNW,292,9.2,9.2,62,0.00,CLR,,0.00,0.0,WeatherDisplay:10.37,2013-11-12 23:25:00,
2013-11-12 18:30:00,28.4,17.0,30.48,NNW,338,5.8,6.2,62,0.00,CLR,,0.00,0.0,WeatherDisplay:10.37,2013-11-12 23:30:00,
2013-11-12 18:35:00,28.1,17.1,30.48,NNW,330,3.0,6.0,63,0.00,CLR,,0.00,0.0,WeatherDisplay:10.37,2013-11-12 23:35:00,
2013-11-12 18:40:00,27.9,16.9,30.48,NNW,338,5.8,5.8,63,0.00,CLR,,0.00,0.0,WeatherDisplay:10.37,2013-11-12 23:40:00,
2013-11-12 18:45:00,27.7,16.3,30.44,NW,317,5.0,8.0,62,0.00,CLR,,0.00,0.0,WeatherDisplay:10.37,2013-11-12 23:45:00,
2013-11-12 18:50:00,27.4,16.1,30.44,NW,314,3.0,8.0,62,0.00,CLR,,0.00,0.0,WeatherDisplay:10.37,2013-11-12 23:50:00,
2013-11-12 18:55:00,27.3,16.0,30.44,NW,307,3.0,7.0,62,0.00,CLR,,0.00,0.0,WeatherDisplay:10.37,2013-11-12 23:55:00,
2013-11-12 19:00:00,27.0,15.7,30.44,NNE,22,4.6,4.6,62,0.00,CLR,,0.00,0.0,WeatherDisplay:10.37,2013-11-13 00:00:00,
2013-11-12 19:05:00,27.0,15.7,30.44,NNW,338,3.5,3.5,62,0.00,CLR,,0.00,0.0,WeatherDisplay:10.37,2013-11-13 00:05:00,
2013-11-12 19:10:00,26.6,15.7,30.44,WNW,292,3.8,3.8,63,0.00,CLR,,0.00,0.0,WeatherDisplay:10.37,2013-11-13 00:10:00,
2013-11-12 19:15:00,26.4,15.5,30.44,NW,307,2.0,5.0,63,0.00,CLR,,0.00,0.0,WeatherDisplay:10.37,2013-11-13 00:15:00,
2013-11-12 19:20:00,26.2,15.3,30.44,NNW,338,3.5,3.5,63,0.00,CLR,,0.00,0.0,WeatherDisplay:10.37,2013-11-13 00:20:00,
2013-11-12 19:25:00,26.1,15.2,30.44,NW,315,2.0,3.0,63,0.00,CLR,,0.00,0.0,WeatherDisplay:10.37,2013-11-13 00:25:00,
2013-11-12 19:30:00,25.9,15.4,30.44,WNW,292,3.6,3.6,64,0.00,CLR,,0.00,0.0,WeatherDisplay:10.37,2013-11-13 00:30:00,
2013-11-12 19:35:00,25.9,15.7,30.44,WNW,301,3.0,4.0,65,0.00,CLR,,0.00,0.0,WeatherDisplay:10.37,2013-11-13 00:35:00,
2013-11-12 19:40:00,26.1,16.2,30.44,NW,306,5.0,6.0,66,0.00,CLR,,0.00,0.0,WeatherDisplay:10.37,2013-11-13 00:40:00,
2013-11-12 19:45:00,26.1,16.2,30.44,WNW,298,3.0,6.0,66,0.00,CLR,,0.00,0.0,WeatherDisplay:10.37,2013-11-13 00:45:00,
2013-11-12 19:50:00,25.9,16.1,30.44,WNW,292,3.8,3.8,66,0.00,CLR,,0.00,0.0,WeatherDisplay:10.37,2013-11-13 00:50:00,
2013-11-12 19:55:00,25.6,15.8,30.44,WNW,290,2.0,5.0,66,0.00,CLR,,0.00,0.0,WeatherDisplay:10.37,2013-11-13 00:55:00,
2013-11-12 20:00:00,25.4,15.9,30.44,WNW,291,2.0,4.0,67,0.00,CLR,,0.00,0.0,WeatherDisplay:10.37,2013-11-13 01:00:00,
2013-11-12 20:05:00,25.2,15.8,30.44,WNW,291,2.0,5.0,67,0.00,CLR,,0.00,0.0,WeatherDisplay:10.37,2013-11-13 01:05:00,
2013-11-12 20:10:00,25.2,16.1,30.44,WNW,292,3.5,3.5,68,0.00,CLR,,0.00,0.0,WeatherDisplay:10.37,2013-11-13 01:10:00,
2013-11-12 20:15:00,25.0,15.9,30.48,WNW,292,2.4,2.4,68,0.00,CLR,,0.00,0.0,WeatherDisplay:10.37,2013-11-13 01:15:00,
2013-11-12 20:20:00,25.0,16.6,30.48,WSW,248,6.9,6.9,70,0.00,CLR,,0.00,0.0,WeatherDisplay:10.37,2013-11-13 01:20:00,
2013-11-12 20:25:00,25.2,16.7,30.48,WNW,286,3.0,5.0,70,0.00,CLR,,0.00,0.0,WeatherDisplay:10.37,2013-11-13 01:25:00,
2013-11-12 20:30:00,25.3,17.2,30.48,WNW,292,4.3,4.3,71,0.00,CLR,,0.00,0.0,WeatherDisplay:10.37,2013-11-13 01:30:00,
2013-11-12 20:35:00,25.7,17.6,30.48,WNW,300,3.0,5.0,71,0.00,CLR,,0.00,0.0,WeatherDisplay:10.37,2013-11-13 01:35:00,
2013-11-12 20:40:00,25.9,17.8,30.48,WNW,293,3.0,5.0,71,0.00,CLR,,0.00,0.0,WeatherDisplay:10.37,2013-11-13 01:40:00,
2013-11-12 20:45:00,26.1,17.9,30.48,WSW,248,4.6,4.6,71,0.00,CLR,,0.00,0.0,WeatherDisplay:10.37,2013-11-13 01:45:00,
2013-11-12 20:50:00,26.4,18.3,30.48,WNW,299,5.0,5.0,71,0.00,CLR,,0.00,0.0,WeatherDisplay:10.37,2013-11-13 01:50:00,
2013-11-12 20:55:00,26.6,18.5,30.48,WNW,302,3.0,5.0,71,0.00,CLR,,0.00,0.0,WeatherDisplay:10.37,2013-11-13 01:55:00,
2013-11-12 21:00:00,26.8,18.3,30.48,WNW,295,5.0,8.0,70,0.00,CLR,,0.00,0.0,WeatherDisplay:10.37,2013-11-13 02:00:00,
2013-11-12 21:05:00,27.0,18.1,30.48,WNW,298,5.0,7.0,69,0.00,CLR,,0.00,0.0,WeatherDisplay:10.37,2013-11-13 02:05:00,
2013-11-12 21:10:00,27.0,18.1,30.48,NNW,338,5.4,5.4,69,0.00,CLR,,0.00,0.0,WeatherDisplay:10.37,2013-11-13 02:10:00,
2013-11-12 21:15:00,27.0,18.1,30.50,WNW,292,6.9,6.9,69,0.00,CLR,,0.00,0.0,WeatherDisplay:10.37,2013-11-13 02:15:00,
2013-11-12 21:20:00,27.0,18.5,30.50,WNW,294,5.0,7.0,70,0.00,CLR,,0.00,0.0,WeatherDisplay:10.37,2013-11-13 02:20:00,
2013-11-12 21:25:00,26.8,18.3,30.50,WNW,292,5.8,5.9,70,0.00,CLR,,0.00,0.0,WeatherDisplay:10.37,2013-11-13 02:25:00,
2013-11-12 21:30:00,26.8,18.6,30.48,WNW,292,6.9,6.9,71,0.00,CLR,,0.00,0.0,WeatherDisplay:10.37,2013-11-13 02:30:00,
2013-11-12 21:35:00,26.7,18.9,30.48,NW,309,6.0,8.0,72,0.00,CLR,,0.00,0.0,WeatherDisplay:10.37,2013-11-13 02:35:00,
2013-11-12 21:40:00,26.6,19.1,30.48,WNW,292,5.8,5.8,73,0.00,CLR,,0.00,0.0,WeatherDisplay:10.37,2013-11-13 02:40:00,
2013-11-12 21:45:00,26.6,19.1,30.48,NW,310,3.0,7.0,73,0.00,CLR,,0.00,0.0,WeatherDisplay:10.37,2013-11-13 02:45:00,
2013-11-12 21:50:00,26.4,18.9,30.48,WNW,301,3.0,6.0,73,0.00,CLR,,0.00,0.0,WeatherDisplay:10.37,2013-11-13 02:50:00,
2013-11-12 21:55:00,26.2,19.1,30.48,WNW,301,5.0,6.0,74,0.00,CLR,,0.00,0.0,WeatherDisplay:10.37,2013-11-13 02:55:00,
2013-11-12 22:00:00,26.2,19.4,30.48,NW,304,5.0,8.0,75,0.00,CLR,,0.00,0.0,WeatherDisplay:10.37,2013-11-13 03:00:00,
2013-11-12 22:05:00,26.1,19.2,30.48,WNW,292,5.8,5.8,75,0.00,CLR,,0.00,0.0,WeatherDisplay:10.37,2013-11-13 03:05:00,
2013-11-12 22:10:00,26.1,19.5,30.48,NNW,338,5.8,5.8,76,0.00,CLR,,0.00,0.0,WeatherDisplay:10.37,2013-11-13 03:10:00,
2013-11-12 22:15:00,26.1,19.5,30.48,NW,309,5.0,6.0,76,0.00,CLR,,0.00,0.0,WeatherDisplay:10.37,2013-11-13 03:15:00,
2013-11-12 22:20:00,26.1,19.8,30.48,WNW,292,6.9,6.9,77,0.00,CLR,,0.00,0.0,WeatherDisplay:10.37,2013-11-13 03:20:00,
2013-11-12 22:25:00,25.7,19.5,30.48,NW,305,3.0,5.0,77,0.00,CLR,,0.00,0.0,WeatherDisplay:10.37,2013-11-13 03:25:00,
2013-11-12 22:30:00,25.7,19.8,30.48,NW,309,5.0,6.0,78,0.00,CLR,,0.00,0.0,WeatherDisplay:10.37,2013-11-13 03:30:00,
2013-11-12 22:35:00,25.6,19.7,30.48,WNW,296,3.0,6.0,78,0.00,CLR,,0.00,0.0,WeatherDisplay:10.37,2013-11-13 03:35:00,
2013-11-12 22:40:00,25.3,19.4,30.48,WNW,292,4.6,4.6,78,0.00,CLR,,0.00,0.0,WeatherDisplay:10.37,2013-11-13 03:40:00,
2013-11-12 22:45:00,25.3,19.7,30.48,WNW,302,3.0,6.0,79,0.00,CLR,,0.00,0.0,WeatherDisplay:10.37,2013-11-13 03:45:00,
2013-11-12 22:50:00,25.0,19.1,30.48,WNW,292,3.5,3.5,78,0.00,CLR,,0.00,0.0,WeatherDisplay:10.37,2013-11-13 03:50:00,
2013-11-12 22:55:00,25.0,19.4,30.48,WNW,291,3.0,5.0,79,0.00,CLR,,0.00,0.0,WeatherDisplay:10.37,2013-11-13 03:55:00,
2013-11-12 23:00:00,24.8,19.5,30.48,WNW,292,3.5,3.5,80,0.00,CLR,,0.00,0.0,WeatherDisplay:10.37,2013-11-13 04:00:00,
2013-11-12 23:05:00,24.6,19.6,30.48,WNW,302,3.0,5.0,81,0.00,CLR,,0.00,0.0,WeatherDisplay:10.37,2013-11-13 04:05:00,
2013-11-12 23:10:00,24.4,19.4,30.48,WNW,292,4.6,4.6,81,0.00,CLR,,0.00,0.0,WeatherDisplay:10.37,2013-11-13 04:10:00,
2013-11-12 23:15:00,24.6,19.9,30.48,NW,308,3.0,6.0,82,0.00,CLR,,0.00,0.0,WeatherDisplay:10.37,2013-11-13 04:15:00,
2013-11-12 23:20:00,24.6,19.9,30.48,NNW,338,6.0,6.0,82,0.00,CLR,,0.00,0.0,WeatherDisplay:10.37,2013-11-13 04:20:00,
2013-11-12 23:25:00,24.8,19.8,30.48,NW,314,5.0,6.0,81,0.00,CLR,,0.00,0.0,WeatherDisplay:10.37,2013-11-13 04:25:00,
2013-11-12 23:30:00,25.0,19.7,30.48,WNW,292,8.1,8.1,80,0.00,CLR,,0.00,0.0,WeatherDisplay:10.37,2013-11-13 04:30:00,
2013-11-12 23:35:00,25.0,19.1,30.48,NW,315,6.0,7.0,78,0.00,CLR,,0.00,0.0,WeatherDisplay:10.37,2013-11-13 04:35:00,
2013-11-12 23:40:00,25.0,18.8,30.48,NNW,331,3.0,7.0,77,0.00,CLR,,0.00,0.0,WeatherDisplay:10.37,2013-11-13 04:40:00,
2013-11-12 23:45:00,25.0,18.5,30.48,NNW,338,6.9,6.9,76,0.00,CLR,,0.00,0.0,WeatherDisplay:10.37,2013-11-13 04:45:00,
2013-11-12 23:50:00,25.0,18.2,30.48,NW,324,3.0,6.0,75,0.00,CLR,,0.00,0.0,WeatherDisplay:10.37,2013-11-13 04:50:00,
2013-11-12 23:55:00,25.0,17.9,30.48,WNW,292,4.6,4.6,74,0.00,CLR,,0.00,0.0,WeatherDisplay:10.37,2013-11-13 04:55:00,